Location: Newark
(47.3150°N, 5.1150°E)
Time: 02:01:06
(UTC+00:00)

O/OREOS (USA 219) - Visible Passes

Search period start: 27 February 2021 00:00
Search period end: 09 March 2021 00:00
Orbit: 621 x 646 km, 72.0° (Epoch: 22 May)

Date Brightness Start Highest point End Pass type
(mag) Time Alt. Az. Time Alt. Az. Time Alt. Az.
04 Mar ? 05:16:52 10° NNE 05:18:27 12° NE 05:20:03 10° ENE visible
05 Mar ? 05:37:41 10° N 05:41:02 20° NE 05:44:21 10° E visible
07 Mar ? 04:43:24 10° NNE 04:45:21 13° NE 04:47:18 10° ENE visible
08 Mar ? 05:04:24 10° N 05:07:54 22° NE 05:11:22 10° ESE visible
